FW6992 Weather Reports


Display with metric or nautical units.
time (UTC)temp
F
wind
direction
speed
MPH
gust
MPH
rain 1hr
in
rain 24hr
in
rain mn
in
humidity
%
barometer
mb
20260505140223 71 117 2.0 2.0 0.00 0.00 0.00 48 1014.9
20260505130147 65 282 0.0 3.0 0.00 0.00 0.00 54 1014.9
20260505124636 65 204 0.0 2.0 0.00 0.00 0.00 59 1014.9
20260505124133 64 154 0.0 2.0 0.00 0.00 0.00 60 1014.9
20260505123629 63 208 0.0 1.0 0.00 0.00 0.00 60 1015.1
20260505123126 62 174 2.0 2.0 0.00 0.00 0.00 63 1015.2
20260505122622 62 87 0.0 2.0 0.00 0.00 0.00 61 1015.1
20260505122120 62 140 0.0 1.0 0.00 0.00 0.00 63 1015.2
20260505121616 62 216 1.0 1.0 0.00 0.00 0.00 62 1015.1
20260505121113 61 186 0.0 2.0 0.00 0.00 0.00 60 1015.1
20260505120609 60 130 2.0 2.0 0.00 0.00 0.00 63 1015.3
20260505120105 60 201 0.0 2.0 0.00 0.00 0.00 64 1015.0
20260505115559 59 197 1.0 2.0 0.00 0.00 0.00 65 1015.2
20260505115057 57 284 0.0 2.0 0.00 0.00 0.00 70 1015.2
20260505114554 56 151 0.0 2.0 0.00 0.00 0.00 72 1015.1
20260505114050 55 231 0.0 2.0 0.00 0.00 0.00 73 1015.1
20260505113547 55 195 1.0 2.0 0.00 0.00 0.00 73 1015.2
20260505113043 55 158 0.0 2.0 0.00 0.00 0.00 74 1015.0
20260505112540 54 156 0.0 2.0 0.00 0.00 0.00 74 1015.2
20260505112039 55 148 0.0 2.0 0.00 0.00 0.00 74 1015.0
20260505111538 54 186 2.0 3.0 0.00 0.00 0.00 74 1014.7
20260505111034 55 164 2.0 2.0 0.00 0.00 0.00 73 1014.7
20260505110531 55 151 1.0 2.0 0.00 0.00 0.00 71 1014.4
20260505102003 54 192 0.0 2.0 0.00 0.00 0.00 74 1014.2
20260505101501 54 134 0.0 2.0 0.00 0.00 0.00 74 1014.3
20260505100957 54 157 0.0 2.0 0.00 0.00 0.00 74 1014.0
20260505100455 55 219 1.0 2.0 0.00 0.00 0.00 73 1014.1
20260505095951 54 158 2.0 2.0 0.00 0.00 0.00 73 1014.2
20260505095447 54 152 0.0 2.0 0.00 0.00 0.00 73 1014.3
20260505094943 54 120 0.0 2.0 0.00 0.00 0.00 75 1014.2
20260505094441 54 104 1.0 2.0 0.00 0.00 0.00 77 1014.2
20260505093936 54 84 1.0 2.0 0.00 0.00 0.00 77 1014.4
20260505093434 54 143 1.0 2.0 0.00 0.00 0.00 77 1014.0
20260505092931 54 58 0.0 2.0 0.00 0.00 0.00 78 1014.0
20260505092428 54 190 1.0 1.0 0.00 0.00 0.00 78 1014.0
20260505091926 54 122 1.0 2.0 0.00 0.00 0.00 78 1014.1
20260505091423 54 104 1.0 2.0 0.00 0.00 0.00 78 1014.2
20260505090921 54 206 0.0 2.0 0.00 0.00 0.00 77 1014.2
20260505090419 54 168 2.0 2.0 0.00 0.00 0.00 77 1014.0
20260505085916 55 147 0.0 2.0 0.00 0.00 0.00 77 1014.0
20260505085414 55 136 0.0 2.0 0.00 0.00 0.00 77 1014.1
20260505084912 55 250 0.0 1.0 0.00 0.00 0.00 77 1014.1
20260505084410 55 156 0.0 1.0 0.00 0.00 0.00 77 1014.1
20260505083908 55 171 0.0 1.0 0.00 0.00 0.00 76 1014.1
20260505083405 55 157 1.0 1.0 0.00 0.00 0.00 76 1014.0
20260505082901 55 155 0.0 2.0 0.00 0.00 0.00 75 1014.0
20260505082357 56 144 0.0 1.0 0.00 0.00 0.00 75 1013.8
20260505081854 56 161 0.0 2.0 0.00 0.00 0.00 74 1013.7
20260505081350 56 151 0.0 2.0 0.00 0.00 0.00 74 1013.7
20260505080847 56 145 0.0 2.0 0.00 0.00 0.00 73 1013.8
20260505080343 57 185 0.0 2.0 0.00 0.00 0.00 72 1013.5
20260505075839 57 156 0.0 1.0 0.00 0.00 0.00 72 1013.7
20260505075336 57 153 0.0 1.0 0.00 0.00 0.00 72 1013.6
20260505074833 57 245 0.0 1.0 0.00 0.00 0.00 72 1013.5
20260505074330 57 233 0.0 2.0 0.00 0.00 0.00 74 1013.6
20260505073828 57 125 1.0 2.0 0.00 0.00 0.00 74 1013.4
20260505073326 57 157 0.0 1.0 0.00 0.00 0.00 72 1013.5
20260505072822 58 166 0.0 1.0 0.00 0.00 0.00 71 1013.4
20260505072318 58 195 0.0 2.0 0.00 0.00 0.00 69 1013.6
20260505071814 58 187 0.0 0.0 0.00 0.00 0.00 70 1013.6
20260505071311 58 233 0.0 1.0 0.00 0.00 0.00 68 1013.6
20260505070809 58 245 0.0 2.0 0.00 0.00 0.00 69 1013.6
20260505070305 58 249 0.0 2.0 0.00 0.00 0.00 70 1013.5
20260505065800 59 135 0.0 1.0 0.00 0.00 0.00 69 1013.4
20260505065258 59 245 0.0 1.0 0.00 0.00 0.00 68 1013.4
20260505064755 58 245 0.0 2.0 0.00 0.00 0.00 70 1013.3
20260505064252 59 123 2.0 2.0 0.00 0.00 0.00 69 1013.1
20260505063749 60 238 0.0 3.0 0.00 0.00 0.00 68 1013.1
20260505063246 59 284 0.0 2.0 0.00 0.00 0.00 68 1013.3
20260505062742 58 215 0.0 1.0 0.00 0.00 0.00 72 1013.2
20260505062240 58 86 0.0 2.0 0.00 0.00 0.00 72 1013.2
20260505061736 58 160 0.0 1.0 0.00 0.00 0.00 72 1013.3
20260505061235 58 238 0.0 1.0 0.00 0.00 0.00 72 1013.0
20260505060731 58 277 0.0 1.0 0.00 0.00 0.00 73 1013.2
20260505060229 58 220 2.0 2.0 0.00 0.00 0.00 73 1013.3
20260505055724 59 215 2.0 2.0 0.00 0.00 0.00 72 1013.2
20260505055220 59 150 0.0 2.0 0.00 0.00 0.00 71 1013.2
20260505054718 59 134 0.0 1.0 0.00 0.00 0.00 70 1013.1
20260505054216 59 145 0.0 2.0 0.00 0.00 0.00 71 1013.1
20260505053714 59 350 0.0 1.0 0.00 0.00 0.00 70 1013.0
20260505053204 59 233 0.0 1.0 0.00 0.00 0.00 70 1013.1
20260505052701 59 230 0.0 2.0 0.00 0.00 0.00 71 1013.1
20260505052158 59 239 0.0 0.0 0.00 0.00 0.00 71 1013.1
20260505051656 59 320 0.0 2.0 0.00 0.00 0.00 73 1013.2
20260505051154 59 223 0.0 1.0 0.00 0.00 0.00 72 1013.2
20260505050651 59 233 0.0 2.0 0.00 0.00 0.00 72 1013.1
20260505050149 59 68 0.0 2.0 0.00 0.00 0.00 74 1013.2
20260505041624 59 224 0.0 1.0 0.00 0.00 0.00 76 1012.9
20260505041122 58 256 0.0 0.0 0.00 0.00 0.00 77 1012.9
20260505040618 58 256 0.0 0.0 0.00 0.00 0.00 78 1013.1
20260505040116 58 239 0.0 1.0 0.00 0.00 0.00 78 1012.9
20260505035612 58 251 0.0 1.0 0.00 0.04 0.04 79 1013.1
20260505035108 58 256 0.0 1.0 0.00 0.04 0.04 80 1013.0
20260505034605 57 251 0.0 2.0 0.00 0.04 0.04 82 1013.1
20260505034102 57 251 0.0 2.0 0.00 0.04 0.04 84 1013.2
20260505033559 57 259 0.0 0.0 0.00 0.04 0.04 86 1013.2
20260505033057 57 238 0.0 0.0 0.00 0.04 0.04 87 1013.4
20260505032555 57 223 0.0 0.0 0.00 0.04 0.04 88 1013.3
20260505032051 57 176 0.0 0.0 0.00 0.04 0.04 88 1013.3
20260505031548 57 194 0.0 1.0 0.00 0.04 0.04 88 1013.4
20260505031044 57 251 0.0 0.0 0.00 0.04 0.04 88 1013.4
20260505030542 57 233 0.0 0.0 0.00 0.04 0.04 88 1013.3
20260505030037 57 251 0.0 0.0 0.00 0.04 0.04 89 1013.1
20260505025533 58 251 0.0 0.0 0.00 0.04 0.04 89 1013.2
20260505025033 58 290 0.0 0.0 0.00 0.04 0.04 89 1013.4
20260505024529 57 261 0.0 1.0 0.00 0.04 0.04 89 1013.1
20260505024026 57 251 0.0 0.0 0.00 0.04 0.04 89 1013.3
20260505023523 58 150 0.0 0.0 0.00 0.04 0.04 89 1013.3
20260505023021 58 156 0.0 2.0 0.00 0.04 0.04 89 1013.3
20260505022518 58 256 0.0 0.0 0.00 0.04 0.04 89 1013.5
20260505022015 58 251 0.0 0.0 0.00 0.04 0.04 89 1013.5
20260505021512 58 251 0.0 0.0 0.00 0.04 0.04 89 1013.4
20260505021009 58 320 0.0 0.0 0.00 0.04 0.04 89 1013.5
20260505020509 58 314 0.0 0.0 0.00 0.04 0.04 89 1013.7
20260505020006 58 311 0.0 0.0 0.00 0.04 0.04 89 1013.6
20260505015503 58 311 0.0 0.0 0.00 0.04 0.04 89 1013.5
20260505015000 58 245 0.0 1.0 0.00 0.04 0.04 89 1013.5
20260505014457 58 206 0.0 1.0 0.00 0.04 0.04 89 1013.5
20260505013954 59 150 0.0 0.0 0.00 0.04 0.04 89 1013.6
20260505013451 59 166 0.0 1.0 0.00 0.04 0.04 89 1013.4
20260505012948 59 238 0.0 0.0 0.00 0.04 0.04 89 1013.3
20260505012446 59 276 1.0 1.0 0.00 0.04 0.04 89 1013.3
20260505011943 59 233 0.0 1.0 0.00 0.04 0.04 89 1013.4
20260505011439 59 314 0.0 0.0 0.00 0.04 0.04 89 1013.2
20260505010936 59 230 0.0 0.0 0.00 0.04 0.04 89 1013.2
20260505010431 60 325 0.0 1.0 0.00 0.04 0.04 89 1012.9
20260505005928 60 329 0.0 1.0 0.00 0.04 0.04 89 1013.0
20260505005425 59 238 0.0 0.0 0.00 0.04 0.04 89 1012.9
20260505004922 60 251 0.0 0.0 0.00 0.04 0.04 89 1012.9
20260505004419 60 251 0.0 0.0 0.00 0.04 0.04 89 1012.8
20260505003916 60 251 0.0 0.0 0.00 0.04 0.04 89 1012.8
20260505003413 60 251 0.0 0.0 0.00 0.04 0.04 88 1012.7
20260505002909 60 314 0.0 0.0 0.00 0.04 0.04 88 1012.7
20260505002405 60 314 0.0 0.0 0.00 0.04 0.04 88 1012.6
20260505001904 61 314 0.0 1.0 0.00 0.04 0.04 88 1012.7
20260505001401 61 317 1.0 2.0 0.00 0.04 0.04 88 1012.6
20260505000858 61 233 0.0 1.0 0.00 0.04 0.04 87 1012.3
20260505000358 61 185 2.0 2.0 0.00 0.04 0.04 87 1012.5
20260504235852 61 312 3.0 3.0 0.00 0.04 0.04 87 1012.8
20260504235349 61 254 0.0 0.0 0.00 0.04 0.04 86 1012.5
20260504234846 61 331 0.0 1.0 0.00 0.04 0.04 86 1012.2
20260504234344 61 150 0.0 1.0 0.00 0.04 0.04 85 1012.3
20260504233840 61 303 0.0 1.0 0.00 0.04 0.04 85 1012.4
20260504233335 62 71 0.0 0.0 0.00 0.04 0.04 84 1012.4
20260504232833 62 330 0.0 1.0 0.00 0.04 0.04 84 1012.7
20260504232330 62 332 0.0 0.0 0.00 0.04 0.04 83 1012.4
20260504231826 62 336 0.0 1.0 0.00 0.04 0.04 82 1012.4
20260504231323 62 314 0.0 2.0 0.02 0.04 0.04 81 1012.4
20260504230819 62 196 0.0 2.0 0.07 0.04 0.04 77 1012.5
20260504230317 64 201 0.0 2.0 0.24 0.04 0.04 71 1012.9
20260504225816 66 207 1.0 4.0 0.17 0.03 0.03 66 1013.0
20260504225312 73 221 2.0 4.0 0.00 0.00 0.00 43 1013.0
20260504224809 73 287 1.0 2.0 0.00 0.00 0.00 42 1012.4
20260504224306 73 259 2.0 2.0 0.00 0.00 0.00 41 1012.0
20260504223802 73 140 2.0 2.0 0.00 0.00 0.00 40 1012.4
20260504223258 74 225 1.0 4.0 0.00 0.00 0.00 41 1011.9
20260504222755 74 286 0.0 3.0 0.00 0.00 0.00 39 1012.0
20260504222252 74 158 1.0 4.0 0.00 0.00 0.00 42 1012.1
20260504221750 74 282 0.0 3.0 0.00 0.00 0.00 38 1012.0
20260504221247 74 290 0.0 2.0 0.00 0.00 0.00 37 1012.1
20260504220743 75 168 0.0 2.0 0.00 0.00 0.00 39 1012.0
20260504220240 74 297 2.0 3.0 0.00 0.00 0.00 36 1011.8
20260504215738 74 222 2.0 6.0 0.00 0.00 0.00 38 1012.2
20260504215234 74 9 1.0 3.0 0.00 0.00 0.00 39 1012.1
20260504214730 74 249 0.0 2.0 0.00 0.00 0.00 38 1012.2
20260504214226 74 173 1.0 3.0 0.00 0.00 0.00 39 1012.1
20260504213723 74 284 2.0 3.0 0.00 0.00 0.00 38 1012.2
20260504213220 75 145 0.0 3.0 0.00 0.00 0.00 35 1012.0
20260504212717 76 299 3.0 4.0 0.00 0.00 0.00 34 1012.1
20260504212214 76 161 1.0 2.0 0.00 0.00 0.00 37 1012.4
20260504211711 76 137 1.0 2.0 0.00 0.00 0.00 36 1012.1
20260504211207 76 306 2.0 4.0 0.00 0.00 0.00 33 1012.1
20260504210704 76 326 0.0 7.0 0.00 0.00 0.00 33 1012.0
20260504210201 77 296 3.0 4.0 0.00 0.00 0.00 33 1012.1
20260504205658 76 327 3.0 8.0 0.00 0.00 0.00 33 1012.2
20260504205155 77 238 2.0 4.0 0.00 0.00 0.00 34 1012.2
20260504204654 76 161 0.0 4.0 0.00 0.00 0.00 36 1012.2
20260504204153 77 5 2.0 4.0 0.00 0.00 0.00 33 1012.2
20260504203651 78 241 1.0 3.0 0.00 0.00 0.00 35 1012.2
20260504203149 78 159 0.0 2.0 0.00 0.00 0.00 34 1012.1
20260504202648 77 318 0.0 2.0 0.00 0.00 0.00 36 1012.2
20260504202146 76 169 1.0 2.0 0.00 0.00 0.00 38 1012.4
20260504201643 75 115 2.0 2.0 0.00 0.00 0.00 36 1012.6
20260504201141 75 179 1.0 4.0 0.00 0.00 0.00 36 1012.4
20260504200637 76 205 3.0 3.0 0.00 0.00 0.00 36 1012.4
20260504200134 76 202 0.0 4.0 0.00 0.00 0.00 36 1012.7
20260504195630 75 347 1.0 5.0 0.00 0.00 0.00 36 1012.7
20260504195126 75 289 0.0 5.0 0.00 0.00 0.00 34 1012.8
20260504194623 73 301 2.0 3.0 0.00 0.00 0.00 35 1012.8
20260504194119 75 309 3.0 4.0 0.00 0.00 0.00 34 1013.0
20260504193615 77 188 1.0 4.0 0.00 0.00 0.00 34 1012.9
20260504193114 76 118 3.0 5.0 0.00 0.00 0.00 32 1013.1
20260504192612 76 137 0.0 2.0 0.00 0.00 0.00 34 1012.9
20260504192110 75 250 0.0 6.0 0.00 0.00 0.00 36 1013.2
20260504191608 76 169 0.0 3.0 0.00 0.00 0.00 36 1013.0
20260504191103 75 102 2.0 6.0 0.00 0.00 0.00 34 1013.2
20260504190600 76 289 0.0 4.0 0.00 0.00 0.00 35 1013.1
20260504190056 76 73 3.0 4.0 0.00 0.00 0.00 33 1013.1
20260504185553 75 180 2.0 3.0 0.00 0.00 0.00 36 1013.6
20260504185050 75 190 1.0 5.0 0.00 0.00 0.00 35 1013.5
20260504184545 75 317 3.0 4.0 0.00 0.00 0.00 37 1013.8
20260504184041 75 334 4.0 5.0 0.00 0.00 0.00 32 1013.6
20260504183538 75 308 4.0 4.0 0.00 0.00 0.00 32 1013.5
20260504183036 76 297 4.0 4.0 0.00 0.00 0.00 32 1013.7
20260504182533 75 126 2.0 2.0 0.00 0.00 0.00 35 1013.7
20260504182030 74 332 0.0 2.0 0.00 0.00 0.00 35 1013.8
20260504181527 74 168 1.0 2.0 0.00 0.00 0.00 39 1013.9
20260504181025 73 69 2.0 2.0 0.00 0.00 0.00 35 1013.9
20260504180524 73 347 0.0 3.0 0.00 0.00 0.00 35 1014.1
20260504180023 73 228 0.0 2.0 0.00 0.00 0.00 34 1014.4
20260504175519 73 164 0.0 3.0 0.00 0.00 0.00 38 1014.5
20260504175016 72 120 1.0 2.0 0.00 0.00 0.00 37 1014.3
20260504174514 72 325 0.0 2.0 0.00 0.00 0.00 36 1014.5
20260504174011 72 335 2.0 3.0 0.00 0.00 0.00 34 1014.5
20260504173507 73 95 1.0 3.0 0.00 0.00 0.00 36 1014.5
20260504173005 73 319 3.0 4.0 0.00 0.00 0.00 33 1014.6
20260504172501 75 342 0.0 2.0 0.00 0.00 0.00 36 1014.6
20260504171957 74 309 2.0 3.0 0.00 0.00 0.00 33 1014.5
20260504171454 74 319 0.0 3.0 0.00 0.00 0.00 32 1014.5
20260504170951 73 286 2.0 6.0 0.00 0.00 0.00 32 1014.6
20260504170447 73 198 1.0 2.0 0.00 0.00 0.00 35 1014.5
20260504160407 56 79 3.0 3.0 0.00 0.00 0.00 91 1015.3
20260504150831 56 115 2.0 3.0 0.00 0.00 0.00 76 1016.1
20260504150328 56 10 0.0 2.0 0.00 0.00 0.00 66 1015.9